Regional Weather Roundup
Issued by NWS Cleveland, OH

Home | Current Version | Previous Version | Graphics & Text | Print | Product List | Glossary On
Versions: 1 2 3 4 5 6 7 8 9 10 11 12 13 14 15 16 17 18 19 20 21 22 23 24 25 26 27 28 29 30 31 32 33 34 35 36 37 38 39 40 41 42 43 44 45 46 47 48 49 50
000
ASUS41 KCLE 242100
RWRCLE
OHIO REGIONAL WEATHER ROUNDUP
NATIONAL WEATHER SERVICE WILMINGTON, OH
400 PM EST SAT JAN 24 2015

NOTE: "FAIR" INDICATES FEW OR NO CLOUDS BELOW 12,000 FEET WITH NO
SIGNIFICANT WEATHER AND/OR OBSTRUCTIONS TO VISIBILITY.

OHZ001>008-015>018-024>027-034-035-043-044-242200-
   NORTHWEST OHIO

CITY           SKY/WX    TMP DP  RH WIND       PRES   REMARKS
DEFIANCE       CLOUDY    35  29  78 SW5       29.63R HAZE
FINDLAY        CLOUDY    33  28  81 SW13      29.61R HAZE    WCI  24
TOLEDO EXPRESS CLOUDY    32  28  85 SW14      29.60R FOG     WCI  22
TOLEDO EXEC    CLOUDY    33  27  78 SW12      29.61R HAZE    WCI  24
LIMA           CLOUDY    34  28  79 SW14      29.63R HAZE    WCI  25
$$

OHZ009>014-019>023-028>033-038-089-242200-
   NORTHEAST OHIO

CITY           SKY/WX    TMP DP  RH WIND       PRES   REMARKS
CLE-HOPKINS    CLOUDY    31  26  82 SW13      29.60S HAZE    WCI  21
CLE-LAKEFRONT  CLOUDY    32  26  78 SW13      29.58R WCI  22
CUY CO. ARPT   CLOUDY    32  28  86 W13G20    29.57S FOG     WCI  22
LORAIN-ELYRIA  CLOUDY    31  26  82 W14       29.59S HAZE    WCI  21
ASHTABULA      CLOUDY    29  25  85 SW8       29.56R FOG     WCI  21
AKRON-CANTON   CLOUDY    32  24  72 W12       29.58R HAZE    WCI  23
WOOSTER        CLOUDY    30  27  86 W10       29.59R FOG     WCI  21
MANSFIELD      CLOUDY    30  28  92 SW10G17   29.59R FOG     WCI  21
YOUNGSTOWN     CLOUDY    29  24  82 SW9       29.55S HAZE    WCI  20
$$

OHZ042-051>053-060>062-070>072-077>081-242200-
  SOUTHWEST OHIO

CITY           SKY/WX    TMP DP  RH WIND       PRES   REMARKS
CINC-COVINGTON CLOUDY    38  27  64 W15       29.71R
CINC-LUNKEN    CLOUDY    39  27  62 W17       29.73R
HAMILTON       CLOUDY    38  28  67 W8G20     29.72R
DAYTON         NOT AVBL
WRIGHT-PAT AFB NOT AVBL
DAYTON GENERAL CLOUDY    36  28  73 W10       29.68R
WILMINGTON     CLOUDY    37  26  64 W18G28    29.67R
$$

OHZ036-037-039>041-045>050-054>059-063>069-073>076-082>088-242200-
  CENTRAL AND SOUTHEAST OHIO

CITY           SKY/WX    TMP DP  RH WIND       PRES   REMARKS
COLUMBUS       CLOUDY    37  26  64 W12G22    29.64R
OSU AIRPORT    CLOUDY    36  27  69 W13G21    29.63R
BOLTON FIELD   CLOUDY    36  28  75 S16       29.65R
RICKENBACK AFB NOT AVBL
NEWARK         CLOUDY    36  27  69 W14       29.62R
MARION         CLOUDY    33  27  78 W14       29.63R HAZE    WCI  23
LANCASTER      CLOUDY    37  28  70 SW12      29.65R
ZANESVILLE     CLOUDY    33  25  72 SW8       29.63R WCI  26
NEW PHILLY     CLOUDY    34  25  69 SW7       29.62R WCI  28
$$


USA.gov is the U.S. government's official web portal to all federal, state and local government web resources and services.